User: anonymous   Login
Location: Unspecified
(0.0000°N, 0.0000°E)
Time: 22:40:31
(UTC+00:00)
Language:

STARLINK-31034 - Orbit

View from above orbital plane
View from above orbital plane
View from above satellite
View from above satellite

Ground track
Ground track

The orbit is defined by the following mean orbital elements,

1 58785U          26145.37418500 +.00000000 +00000-0 +63022-4 0 00009
2 58785  53.1618 274.2607 0001150  82.6843 277.4290 15.34398390    01
Epoch (UTC): 25 May 2026 08:58:49
Eccentricity: 0.0001150
inclination: 53.1618°
perigee height: 462 km
apogee height: 463 km
right ascension of ascending node: 274.2607°
argument of perigee: 82.6843°
revolutions per day: 15.34398390
mean anomaly at epoch: 277.4290°

The dashed part of the orbit path shows where the satellite is in the earth's shadow,  

DLR